Back to catalog

QIANFAN-176

AliveCommunicationsPO
NORAD 69393·PAYLOAD·🇨🇳 China

Launched Jun 4, 2026 from Taiyuan Satellite Launch Center

Loading…

Next Passes (next 24 hours)

TLE

FreshSource: Space-Track

Epoch: Sep 14, 2026, 21:04 UTC

1 69393U 26124M   26257.87800347  .00000130  00000-0  18260-3 0  9998
2 69393  89.0057 352.5377 0001848 101.1743 258.9616 13.51020357 14167

Track QIANFAN-176 in real time with AllMySat

Download on the App Store